Date String (YYYY-MM-DD hh:mm:ss) UTC,Instrument flags,Ambient pressure (hPa),Sample flow (lpm),Bypass flow (lpm),Sample temperature (°C),Ambient temperature (°C),ASC tube jacket temperature (°C),LED temperature (°C),Box temperature (°C),Sample RH (%),Span deviation,Mass concentration (μg/m³),Mass concentration (μg/m³),Mass concentration (μg/m³)
DateTimeUTC,F1_M11,P_M11,Q1_M11,Q2_M11,T1_M11,T2_M11,T3_M11,T4_M11,T5_M11,U1_M11,ZSPAN_M11,X0_M11,X2_M11,X1_M11
2022-06-06 02:00:00,,0820.6,4.99,0.00,29.2,27.8,00.0,38.1,31.1,24.9,0000.0,0009.67,0004.16,0002.48
2022-06-06 02:01:00,,0820.6,4.99,0.00,29.2,27.9,00.0,38.1,31.2,24.9,0000.0,0009.54,0004.15,0002.47
2022-06-06 02:02:00,,0820.6,5.00,0.00,29.3,28.0,00.0,38.1,31.2,24.6,0000.0,0009.87,0004.23,0002.47
2022-06-06 02:03:00,,0820.6,4.99,0.00,29.3,28.1,00.0,38.1,31.2,24.6,0000.0,0009.68,0004.20,0002.49
2022-06-06 02:04:00,,0820.6,4.99,0.00,29.3,28.2,00.0,38.1,31.2,24.4,0000.0,0009.46,0004.14,0002.49
2022-06-06 02:05:00,,0820.6,5.00,0.00,29.3,28.3,00.0,38.1,31.3,24.1,0000.0,0009.28,0004.12,0002.50
2022-06-06 02:06:00,,0820.6,5.01,0.00,29.4,28.4,00.0,38.2,31.3,24.0,0000.0,0009.00,0004.09,0002.51
2022-06-06 02:07:00,,0820.7,4.98,0.00,29.4,28.4,00.0,38.2,31.3,24.2,0000.0,0008.92,0004.06,0002.51
2022-06-06 02:08:00,,0820.7,5.00,0.00,29.4,28.5,00.0,38.2,31.4,24.5,0000.0,0008.95,0004.04,0002.48
2022-06-06 02:09:00,,0820.7,5.00,0.00,29.4,28.5,00.0,38.2,31.4,23.9,0000.0,0009.47,0004.06,0002.48
2022-06-06 02:10:00,,0820.7,5.01,0.00,29.5,28.6,00.0,38.2,31.4,24.1,0000.0,0010.27,0004.13,0002.46
2022-06-06 02:11:00,,0820.7,5.00,0.00,29.5,28.5,00.0,38.2,31.4,23.7,0000.0,0010.80,0004.19,0002.46
2022-06-06 02:12:00,,0820.7,4.99,0.00,29.5,27.7,00.0,38.2,31.3,23.7,0000.0,0010.79,0004.18,0002.45
2022-06-06 02:13:00,,0820.7,5.01,0.00,29.4,27.3,00.0,38.1,31.1,24.2,0000.0,0011.19,0004.11,0002.45
2022-06-06 02:14:00,,0820.7,5.00,0.00,29.3,27.1,00.0,38.1,31.0,24.0,0000.0,0011.22,0004.11,0002.43
2022-06-06 02:15:00,,0820.8,5.01,0.00,29.3,27.2,00.0,38.1,31.0,24.1,0000.0,0011.72,0004.14,0002.43
2022-06-06 02:16:00,,0820.8,4.99,0.00,29.2,27.3,00.0,38.1,31.0,24.4,0000.0,0011.94,0004.16,0002.41
2022-06-06 02:17:00,,0820.8,4.99,0.00,29.2,27.4,00.0,38.1,31.0,24.5,0000.0,0012.37,0004.20,0002.40
2022-06-06 02:18:00,,0820.9,5.01,0.00,29.2,27.6,00.0,38.1,31.1,24.7,0000.0,0013.04,0004.22,0002.39
2022-06-06 02:19:00,,0820.9,4.99,0.00,29.2,27.7,00.0,38.1,31.1,24.9,0000.0,0013.02,0004.23,0002.40
2022-06-06 02:20:00,,0820.9,4.99,0.00,29.2,27.8,00.0,38.1,31.1,24.6,0000.0,0012.47,0004.23,0002.41
2022-06-06 02:21:00,,0820.9,5.00,0.00,29.2,28.0,00.0,38.1,31.2,24.4,0000.0,0011.90,0004.22,0002.43
2022-06-06 02:22:00,,0820.9,5.00,0.00,29.3,28.1,00.0,38.1,31.2,23.9,0000.0,0011.48,0004.21,0002.43
2022-06-06 02:23:00,,0820.8,5.01,0.00,29.3,28.1,00.0,38.1,31.2,24.0,0000.0,0011.90,0004.23,0002.44
2022-06-06 02:24:00,,0820.8,5.01,0.00,29.3,28.2,00.0,38.1,31.2,23.9,0000.0,0011.19,0004.21,0002.43
2022-06-06 02:25:00,,0820.8,4.99,0.00,29.3,28.3,00.0,38.2,31.3,24.0,0000.0,0011.14,0004.19,0002.43
2022-06-06 02:26:00,,0820.9,5.00,0.00,29.3,28.3,00.0,38.2,31.3,23.6,0000.0,0010.79,0004.20,0002.42
2022-06-06 02:27:00,,0820.9,5.00,0.00,29.4,28.4,00.0,38.2,31.3,23.2,0000.0,0010.89,0004.24,0002.41
2022-06-06 02:28:00,,0820.9,5.01,0.00,29.4,28.4,00.0,38.2,31.3,23.1,0000.0,0011.04,0004.24,0002.41
2022-06-06 02:29:00,,0820.8,5.01,0.00,29.4,28.5,00.0,38.2,31.4,23.0,0000.0,0010.39,0004.19,0002.39
2022-06-06 02:30:00,,0820.8,4.98,0.00,29.5,28.5,00.0,38.2,31.4,22.9,0000.0,0010.77,0004.17,0002.37
2022-06-06 02:31:00,,0820.8,5.00,0.00,29.5,28.6,00.0,38.3,31.4,22.8,0000.0,0010.82,0004.17,0002.36
2022-06-06 02:32:00,,0820.8,5.01,0.00,29.5,28.6,00.0,38.3,31.5,22.7,0000.0,0010.76,0004.13,0002.34
2022-06-06 02:33:00,,0820.9,5.01,0.00,29.5,28.7,00.0,38.3,31.5,22.7,0000.0,0010.84,0004.09,0002.32
2022-06-06 02:34:00,,0820.8,4.98,0.00,29.5,28.2,00.0,38.3,31.4,22.6,0000.0,0010.46,0004.04,0002.31
2022-06-06 02:35:00,,0820.8,5.01,0.00,29.5,27.5,00.0,38.2,31.2,22.7,0000.0,0010.43,0004.08,0002.31
2022-06-06 02:36:00,,0820.9,5.00,0.00,29.4,27.2,00.0,38.2,31.1,22.7,0000.0,0010.42,0004.08,0002.32
2022-06-06 02:37:00,,0820.8,5.01,0.00,29.3,27.2,00.0,38.2,31.0,22.8,0000.0,0010.23,0004.04,0002.33
2022-06-06 02:38:00,,0820.8,4.99,0.00,29.3,27.3,00.0,38.2,31.0,22.8,0000.0,0009.96,0003.98,0002.35
2022-06-06 02:39:00,,0820.8,5.00,0.00,29.2,27.4,00.0,38.1,31.0,22.8,0000.0,0009.36,0003.95,0002.35
2022-06-06 02:40:00,,0820.8,5.00,0.00,29.2,27.5,00.0,38.1,31.1,22.8,0000.0,0009.23,0003.94,0002.36
2022-06-06 02:41:00,,0820.8,5.00,0.00,29.2,27.7,00.0,38.1,31.1,22.7,0000.0,0008.88,0003.92,0002.36
2022-06-06 02:42:00,,0820.8,5.00,0.00,29.2,27.8,00.0,38.1,31.1,22.5,0000.0,0008.95,0003.90,0002.34
2022-06-06 02:43:00,,0820.8,5.00,0.00,29.3,27.9,00.0,38.1,31.1,22.4,0000.0,0009.05,0003.92,0002.33
2022-06-06 02:44:00,,0820.7,4.99,0.00,29.3,28.0,00.0,38.1,31.2,22.4,0000.0,0008.96,0003.95,0002.34
2022-06-06 02:45:00,,0820.8,5.00,0.00,29.3,28.1,00.0,38.1,31.2,22.4,0000.0,0009.11,0003.99,0002.35
2022-06-06 02:46:00,,0820.9,5.00,0.00,29.3,28.2,00.0,38.2,31.3,22.4,0000.0,0009.11,0003.95,0002.34
2022-06-06 02:47:00,,0820.8,5.01,0.00,29.3,28.3,00.0,38.2,31.3,22.4,0000.0,0009.18,0003.97,0002.33
2022-06-06 02:48:00,,0820.9,4.99,0.00,29.4,28.4,00.0,38.2,31.3,22.1,0000.0,0009.29,0003.99,0002.31
2022-06-06 02:49:00,,0820.9,5.01,0.00,29.4,28.4,00.0,38.2,31.3,22.1,0000.0,0009.27,0003.97,0002.26
2022-06-06 02:50:00,,0821.0,5.00,0.00,29.4,28.5,00.0,38.2,31.4,22.9,0000.0,0009.88,0003.98,0002.24
2022-06-06 02:51:00,,0821.0,5.01,0.00,29.5,28.5,00.0,38.2,31.4,25.2,0000.0,0010.06,0004.02,0002.25
2022-06-06 02:52:00,,0821.0,5.01,0.00,29.5,28.6,00.0,38.3,31.4,26.0,0000.0,0010.06,0003.97,0002.25
2022-06-06 02:53:00,,0821.0,4.99,0.00,29.5,28.6,00.0,38.3,31.5,27.2,0000.0,0010.33,0003.99,0002.27
2022-06-06 02:54:00,,0821.0,5.00,0.00,29.5,28.7,00.0,38.3,31.5,27.5,0000.0,0010.35,0003.99,0002.28
2022-06-06 02:55:00,,0821.0,5.00,0.00,29.6,28.7,00.0,38.3,31.5,26.7,0000.0,0010.74,0003.99,0002.29
2022-06-06 02:56:00,,0821.0,5.00,0.00,29.6,28.7,00.0,38.3,31.5,26.3,0000.0,0010.39,0003.97,0002.30
2022-06-06 02:57:00,,0821.0,4.99,0.00,29.6,28.1,00.0,38.3,31.4,25.1,0000.0,0010.62,0004.00,0002.33
2022-06-06 02:58:00,,0821.0,5.01,0.00,29.5,27.4,00.0,38.2,31.2,23.9,0000.0,0010.72,0004.01,0002.33
2022-06-06 02:59:00,,0821.0,4.99,0.00,29.4,27.2,00.0,38.2,31.1,23.6,0000.0,0010.75,0004.00,0002.35
